Пасанаури

Грузия     42°21′05″N   44°41′20″E
темп.,
°C
ветер,
м/с
пор.,
м/с
влажн.,
%
обл.,
%
осадки,
мм/ч
давл.,
гПа
погр.,
м
19 апреля, пн
пн1901:00+7с2386100 0.0 101963
04:00+6с3388100 0.0 102051
07:00+7ссз2282100 0.0 101993
10:00+11ююз1372100 0.0 1018506
13:00+14з1859100 0.0 10171512
16:00+17з4154754 0.2 10152129
19:00+14юз2462100 0.0 101585
22:00+9ссв3382100 0.0 101843
20 апреля, вт
вт2001:00+8ссв348090 0.0 101870
04:00+8ссв3479100 0.1 101677
07:00+8ссв3479100 0.0 101669
10:00+18ююв124420 0.0 1014655
13:00+21ю373439 0.0 10111791
16:00+21юз5738100 0.0 10082784
19:00+14ююз1182100 1.4 101243
22:00+11в0194100 12.8 101514
21 апреля, ср
ср2101:00+9ссв339091 0.1 101651
04:00+8с2388100 0.2 101448
07:00+9с248910 0.9 101475
10:00+16ю126495 2.0 1013634
13:00+18ю2359100 2.8 1011721
16:00+14ю248589 6.6 1012145
19:00+12ю229894 3.5 1015251
22:00+9юз1199100 4.8 1017166
22 апреля, чт
чт2201:00+9ююв1199100 1.7 101793
04:00+9юв119996 3.3 101778
07:00+9ю2299100 1.4 1018131
10:00+9ююз2297100 2.1 1018298
13:00+9ю119599 0.8 1019263
16:00+12ююз328399 1.9 1017655
19:00+10ююз2288100 1.1 1017370
22:00+8юз2399100 2.0 1019188
23 апреля, пт
пт2301:00+7ююз2299100 1.3 1019197
04:00+6сз019898 2.1 1020211
07:00+6юз119499 0.1 1021227
10:00+7юз1188100 0.1 1021357
13:00+13ююз33545 0.0 10181241
16:00+14ююз45375 0.1 10171823
19:00+10ю235399 0.0 101887
22:00+5св21825 0.0 102212